Regional Weather Roundup
Issued by NWS

Home | Current Version | Previous Version | Graphics & Text | Print | Product List | Glossary On
Versions: 1 2 3 4 5 6 7 8 9 10 11 12 13 14 15 16 17 18 19 20 21 22 23 24 25 26 27 28 29 30 31 32 33 34 35 36 37 38 39 40 41 42 43 44 45 46 47 48 49 50
000
ASUS43 KLMK 182302
RWRKY
KENTUCKY REGIONAL WEATHER ROUNDUP
NATIONAL WEATHER SERVICE LOUISVILLE KY
700 PM EDT WED OCT 18 2017

NOTE "FAIR" INDICATES FEW OR NO CLOUDS BELOW 12,000 FEET
WITH NO SIGNIFICANT WEATHER AND/OR OBSTRUCTIONS TO VISIBILITY.

KYZ001>023-026-027-061>063-070>075-190000-
WESTERN AND SOUTH CENTRAL KENTUCKY

CITY           SKY/WX    TMP DP  RH WIND       PRES   REMARKS
PADUCAH        CLEAR     69  46  43 S5        30.17S
HENDERSON      CLEAR     64  47  53 S6        30.18S
OWENSBORO      CLEAR     66  48  52 S8        30.19S
HOPKINSVILLE   CLEAR     68  45  43 S6        30.20S
BOWLING GREEN  CLEAR     66  45  46 S6        30.22S
GLASGOW        NOT AVBL
$$

KYZ024-025-028>034-038-045-046-053-190000-
NORTH CENTRAL KENTUCKY

CITY           SKY/WX    TMP DP  RH WIND       PRES   REMARKS
LOUISVILLE/SDF PTCLDY    67  45  45 S7        30.20F
LOUISVILLE/LOU CLEAR     65  45  48 S6        30.21F
FORT KNOX      CLEAR     64  46  51 S3        30.20S
$$

KYZ035>037-039>044-047>052-055>060-089>105-190000-
NORTHEAST KENTUCKY

CITY           SKY/WX    TMP DP  RH WIND       PRES   REMARKS
LEXINGTON      CLEAR     63  45  51 S5        30.24R
COVINGTON      PTCLDY    63  44  50 SW5       30.21S
FRANKFORT      CLEAR     63  43  48 S6        30.22S
$$

KYZ054-064>069-076>088-106>120-190000-
SOUTHEAST KENTUCKY

CITY           SKY/WX    TMP DP  RH WIND       PRES   REMARKS
JACKSON        PTCLDY    63  39  41 CALM      30.26S
LONDON         CLEAR     66  43  43 CALM      30.26S
SOMERSET       NOT AVBL
MIDDLESBORO    CLEAR     60  49  65 CALM      30.27S
MONTICELLO     CLEAR     59  48  67 N12       30.26F
$$





USA.gov is the U.S. government's official web portal to all federal, state and local government web resources and services.